QPF
0.00 0.00 0.00 0.00 0.01 0.01 0.01 0.00 0.00 0.01 0.00 0.00 0.00 0.00 0.00 0.01 0.01 0.01 0.01 0.02 0.02 0.03 0.04 0.04 0.03 0.03 0.02 0.02 0.01 0.01 0.01 0.01 0.01 0.01 0.01 0.01 0.01 0.01 0.01 0.01 0.01 0.01 0.02
0.00 0.00 0.01 0.01 0.01 0.01 0.01 0.01 0.01 0.02 0.01 0.01 0.01 0.01 0.01 0.02 0.02 0.02 0.01 0.01 0.02 0.03 0.04 0.04 0.04 0.03 0.03 0.02 0.02 0.01 0.01 0.01 0.01 0.01 0.01 0.01 0.01 0.01 0.01 0.01 0.01 0.02 0.02
0.00 0.01 0.01 0.01 0.02 0.02 0.02 0.02 0.03 0.02 0.01 0.01 0.01 0.01 0.02 0.03 0.03 0.02 0.02 0.03 0.03 0.04 0.05 0.04 0.04 0.04 0.03 0.03 0.02 0.02 0.02 0.02 0.02 0.02 0.02 0.02 0.01 0.01 0.01 0.01 0.01 0.01 0.01
0.01 0.02 0.03 0.03 0.05 0.04 0.04 0.05 0.04 0.02 0.01 0.01 0.01 0.01 0.01 0.02 0.02 0.03 0.03 0.03 0.04 0.03 0.04 0.04 0.03 0.03 0.02 0.02 0.02 0.02 0.02 0.02 0.01 0.01 0.02 0.02 0.02 0.02 0.02 0.01 0.01 0.01 0.01
0.07 0.08 0.08 0.08 0.08 0.08 0.08 0.08 0.05 0.03 0.02 0.01 0.01 0.01 0.01 0.01 0.02 0.02 0.03 0.03 0.04 0.04 0.04 0.04 0.03 0.02 0.01 0.01 0.01 0.01 0.01 0.01 0.01 0.01 0.01 0.01 0.01 0.02 0.01 0.01 0.00 0.01 0.01
0.14 0.14 0.13 0.13 0.13 0.13 0.11 0.08 0.07 0.05 0.03 0.02 0.01 0.01 0.01 0.01 0.01 0.01 0.01 0.01 0.02 0.02 0.02 0.01 0.01 0.01 0.01 0.01 0.01 0.01 0.01 0.01 0.01 0.01 0.01 0.01 0.01 0.01 0.01 0.01 0.01 0.00 0.00
0.24 0.24 0.24 0.24 0.23 0.18 0.13 0.09 0.08 0.06 0.05 0.03 0.02 0.01 0.01 0.01 0.01 0.01 0.01 0.01 0.01 0.00 0.00 0.00 0.00 0.00 0.00 0.00 0.01 0.00 0.00 0.01 0.01 0.01 0.01 0.01 0.01 0.01 0.01 0.01 0.01 0.01 0.01
0.36 0.37 0.35 0.31 0.30 0.25 0.18 0.12 0.09 0.08 0.06 0.05 0.03 0.02 0.01 0.01 0.01 0.01 0.00 0.00 0.00 0.00 0.00 0.01 0.01 0.00 0.00 0.00 0.00 0.00 0.01 0.01 0.01 0.01 0.01 0.01 0.01 0.01 0.00 0.00 0.00 0.01 0.01
0.39 0.38 0.37 0.37 0.33 0.27 0.21 0.15 0.11 0.09 0.06 0.05 0.03 0.03 0.01 0.00 0.00 0.00 0.00 0.00 0.01 0.01 0.01 0.01 0.01 0.01 0.01 0.00 0.00 0.01 0.01 0.00 0.00 0.01 0.01 0.01 0.01 0.01 0.01 0.00 0.01 0.00 0.00
0.47 0.44 0.39 0.33 0.27 0.21 0.17 0.14 0.11 0.09 0.07 0.05 0.04 0.02 0.01 0.00 0.00 0.00 0.00 0.00 0.01 0.01 0.01 0.01 0.01 0.01 0.01 0.00 0.00 0.00 0.01 0.01 0.01 0.01 0.01 0.01 0.02 0.02 0.01 0.01 0.01 0.01 0.01
0.42 0.39 0.34 0.31 0.27 0.22 0.16 0.12 0.10 0.07 0.05 0.03 0.02 0.02 0.01 0.01 0.00 0.00 0.00 0.00 0.00 0.00 0.00 0.00 0.00 0.00 0.00 0.00 0.00 0.00 0.00 0.00 0.00 0.01 0.01 0.01 0.01 0.02 0.02 0.02 0.02 0.02 0.02
0.35 0.35 0.32 0.27 0.22 0.17 0.13 0.11 0.09 0.07 0.04 0.03 0.02 0.01 0.01 0.01 0.00 0.00 0.01 0.00 0.00 0.00 0.00 0.00 0.00 0.00 0.00 0.00 0.00 0.00 0.00 0.00 0.00 0.00 0.00 0.00 0.00 0.01 0.01 0.01 0.01 0.02 0.02
0.26 0.22 0.19 0.17 0.14 0.12 0.12 0.12 0.11 0.09 0.06 0.04 0.03 0.02 0.01 0.00 0.00 0.00 0.00 0.00 0.00 0.00 0.00 0.00 0.00 0.00 0.00 0.00 0.00 0.00 0.00 0.00 0.00 0.00 0.00 0.00 0.00 0.00 0.00 0.00 0.00 0.01 0.01
0.14 0.12 0.13 0.13 0.12 0.11 0.11 0.10 0.09 0.08 0.06 0.03 0.02 0.01 0.00 0.00 0.00 0.00 0.00 0.00 0.00 0.00 0.00 0.00 0.00 0.00 0.00 0.00 0.00 0.00 0.00 0.00 0.00 0.00 0.00 0.00 0.00 0.00 0.00 0.00 0.00 0.01 0.01
0.09 0.10 0.10 0.10 0.09 0.08 0.07 0.06 0.05 0.03 0.02 0.01 0.01 0.00 0.00 0.00 0.00 0.00 0.00 0.00 0.00 0.00 0.00 0.00 0.00 0.00 0.00 0.00 0.00 0.00 0.00 0.00 0.00 0.00 0.00 0.00 0.00 0.00 0.00 0.00 0.00 0.01 0.01
0.06 0.05 0.04 0.04 0.04 0.03 0.02 0.01 0.01 0.01 0.01 0.00 0.00 0.00 0.00 0.00 0.00 0.00 0.00 0.00 0.00 0.00 0.00 0.00 0.00 0.00 0.00 0.00 0.00 0.00 0.00 0.00 0.00 0.00 0.00 0.00 0.00 0.00 0.00 0.00 0.01 0.01 0.02
0.03 0.03 0.02 0.01 0.01 0.01 0.01 0.00 0.00 0.00 0.00 0.00 0.00 0.00 0.00 0.00 0.00 0.00 0.00 0.00 0.00 0.00 0.00 0.00 0.00 0.00 0.00 0.00 0.00 0.00 0.00 0.00 0.00 0.00 0.00 0.00 0.00 0.00 0.00 0.00 0.01 0.01 0.01
0.02 0.01 0.01 0.01 0.01 0.01 0.01 0.00 0.00 0.00 0.00 0.00 0.00 0.00 0.00 0.00 0.00 0.00 0.00 0.00 0.00 0.00 0.00 0.00 0.00 0.00 0.00 0.00 0.00 0.00 0.00 0.00 0.00 0.00 0.00 0.00 0.00 0.00 0.00 0.00 0.01 0.01 0.00
0.02 0.01 0.01 0.01 0.01 0.01 0.01 0.01 0.01 0.00 0.00 0.00 0.00 0.00 0.00 0.00 0.00 0.00 0.00 0.00 0.00 0.00 0.00 0.00 0.00 0.00 0.00 0.00 0.00 0.00 0.00 0.00 0.00 0.00 0.00 0.00 0.00 0.00 0.00 0.00 0.00 0.00 0.00
0.01 0.01 0.01 0.01 0.01 0.01 0.01 0.01 0.00 0.00 0.00 0.00 0.00 0.00 0.00 0.00 0.00 0.00 0.00 0.00 0.00 0.00 0.00 0.00 0.00 0.00 0.00 0.00 0.00 0.00 0.00 0.00 0.00 0.00 0.00 0.00 0.00 0.00 0.00 0.00 0.00 0.00 0.00
0.01 0.01 0.01 0.01 0.01 0.01 0.00 0.00 0.00 0.00 0.00 0.00 0.00 0.00 0.00 0.00 0.00 0.00 0.00 0.00 0.00 0.00 0.00 0.00 0.00 0.00 0.00 0.00 0.00 0.00 0.00 0.00 0.00 0.00 0.00 0.00 0.00 0.00 0.00 0.00 0.00 0.00 0.00
0.00 0.00 0.00 0.00 0.00 0.00 0.00 0.00 0.00 0.00 0.00 0.00 0.00 0.00 0.00 0.00 0.00 0.00 0.00 0.00 0.00 0.00 0.00 0.00 0.00 0.00 0.00 0.00 0.00 0.00 0.01 0.01 0.01 0.00 0.00 0.00 0.00 0.00 0.00 0.00 0.00 0.00 0.00
0.00 0.00 0.00 0.00 0.00 0.00 0.00 0.00 0.00 0.00 0.00 0.00 0.00 0.00 0.00 0.00 0.00 0.00 0.00 0.00 0.00 0.00 0.00 0.00 0.00 0.00 0.00 0.00 0.01 0.01 0.01 0.02 0.01 0.01 0.01 0.00 0.00 0.00 0.00 0.00 0.00 0.00 0.00
0.00 0.00 0.00 0.00 0.00 0.00 0.00 0.00 0.00 0.00 0.00 0.00 0.00 0.00 0.00 0.00 0.00 0.00 0.00 0.00 0.00 0.00 0.00 0.00 0.00 0.00 0.00 0.01 0.01 0.02 0.02 0.02 0.01 0.01 0.01 0.01 0.00 0.00 0.00 0.00 0.00 0.00 0.00
0.00 0.00 0.00 0.00 0.00 0.00 0.00 0.00 0.00 0.00 0.00 0.00 0.00 0.00 0.00 0.00 0.00 0.00 0.00 0.00 0.00 0.00 0.00 0.00 0.00 0.01 0.01 0.01 0.01 0.01 0.02 0.02 0.01 0.01 0.00 0.01 0.01 0.00 0.00 0.00 0.00 0.00 0.00
0.00 0.00 0.00 0.00 0.00 0.00 0.00 0.00 0.00 0.00 0.00 0.00 0.00 0.00 0.00 0.00 0.00 0.00 0.01 0.00 0.00 0.00 0.00 0.00 0.00 0.00 0.01 0.01 0.01 0.01 0.01 0.01 0.02 0.02 0.01 0.03 0.03 0.02 0.02 0.01 0.00 0.00 0.00
MSLP
1018.16 1018.37 1018.53 1018.65 1018.74 1018.82 1018.90 1018.96 1019.01 1019.05 1019.07 1019.07 1019.07 1019.07 1019.09 1019.15 1019.24 1019.37 1019.53 1019.71 1019.89 1020.06 1020.22 1020.38 1020.53 1020.69 1020.86 1021.04 1021.22 1021.40 1021.56 1021.69 1021.77 1021.82 1021.84 1021.86 1021.88 1021.93 1022.01 1022.11 1022.24 1022.36 1022.48
1017.92 1018.12 1018.29 1018.43 1018.56 1018.68 1018.79 1018.89 1018.99 1019.08 1019.15 1019.22 1019.28 1019.33 1019.40 1019.48 1019.57 1019.68 1019.81 1019.94 1020.06 1020.19 1020.32 1020.44 1020.58 1020.73 1020.89 1021.06 1021.23 1021.39 1021.53 1021.64 1021.72 1021.76 1021.79 1021.82 1021.86 1021.91 1021.99 1022.09 1022.20 1022.31 1022.41
1017.59 1017.79 1017.98 1018.16 1018.33 1018.50 1018.67 1018.84 1019.01 1019.17 1019.32 1019.46 1019.60 1019.72 1019.83 1019.94 1020.04 1020.13 1020.21 1020.28 1020.35 1020.42 1020.48 1020.57 1020.66 1020.78 1020.91 1021.06 1021.20 1021.34 1021.45 1021.54 1021.60 1021.65 1021.69 1021.73 1021.79 1021.86 1021.96 1022.06 1022.17 1022.27 1022.37
1017.24 1017.45 1017.66 1017.88 1018.11 1018.34 1018.58 1018.82 1019.06 1019.29 1019.52 1019.74 1019.95 1020.14 1020.31 1020.46 1020.56 1020.64 1020.68 1020.70 1020.70 1020.70 1020.71 1020.73 1020.78 1020.85 1020.95 1021.05 1021.15 1021.25 1021.33 1021.39 1021.44 1021.49 1021.53 1021.59 1021.67 1021.77 1021.88 1022.01 1022.13 1022.24 1022.34
1016.96 1017.18 1017.42 1017.68 1017.95 1018.23 1018.52 1018.81 1019.11 1019.41 1019.70 1019.99 1020.27 1020.53 1020.75 1020.93 1021.06 1021.13 1021.15 1021.12 1021.07 1021.01 1020.96 1020.93 1020.92 1020.94 1020.99 1021.05 1021.10 1021.16 1021.19 1021.23 1021.25 1021.29 1021.34 1021.41 1021.51 1021.63 1021.77 1021.92 1022.06 1022.18 1022.29
1016.83 1017.08 1017.34 1017.62 1017.92 1018.22 1018.53 1018.85 1019.17 1019.50 1019.84 1020.18 1020.51 1020.82 1021.10 1021.32 1021.47 1021.55 1021.56 1021.51 1021.42 1021.32 1021.22 1021.14 1021.09 1021.06 1021.06 1021.07 1021.08 1021.09 1021.08 1021.08 1021.08 1021.10 1021.14 1021.22 1021.33 1021.47 1021.63 1021.79 1021.95 1022.09 1022.20
1016.93 1017.19 1017.46 1017.75 1018.04 1018.34 1018.64 1018.94 1019.26 1019.59 1019.94 1020.30 1020.67 1021.02 1021.34 1021.60 1021.78 1021.88 1021.90 1021.85 1021.75 1021.62 1021.49 1021.38 1021.29 1021.23 1021.19 1021.15 1021.12 1021.08 1021.04 1021.00 1020.97 1020.96 1020.99 1021.06 1021.17 1021.31 1021.47 1021.64 1021.80 1021.94 1022.06
1017.26 1017.54 1017.81 1018.08 1018.35 1018.61 1018.87 1019.14 1019.41 1019.72 1020.05 1020.41 1020.79 1021.17 1021.51 1021.81 1022.03 1022.16 1022.19 1022.16 1022.06 1021.93 1021.79 1021.66 1021.54 1021.46 1021.38 1021.31 1021.24 1021.17 1021.09 1021.00 1020.94 1020.90 1020.90 1020.95 1021.04 1021.17 1021.31 1021.47 1021.62 1021.75 1021.85
1017.82 1018.10 1018.35 1018.60 1018.83 1019.04 1019.24 1019.45 1019.67 1019.93 1020.23 1020.57 1020.94 1021.32 1021.69 1022.01 1022.26 1022.42 1022.49 1022.47 1022.38 1022.26 1022.12 1021.98 1021.85 1021.74 1021.65 1021.55 1021.45 1021.34 1021.22 1021.11 1021.00 1020.93 1020.89 1020.90 1020.96 1021.05 1021.16 1021.28 1021.40 1021.50 1021.57
1018.53 1018.81 1019.05 1019.27 1019.45 1019.61 1019.76 1019.91 1020.07 1020.28 1020.53 1020.84 1021.19 1021.57 1021.94 1022.27 1022.54 1022.72 1022.81 1022.81 1022.74 1022.63 1022.49 1022.35 1022.21 1022.09 1021.97 1021.85 1021.73 1021.59 1021.44 1021.28 1021.14 1021.02 1020.94 1020.90 1020.90 1020.94 1021.00 1021.07 1021.14 1021.19 1021.21
1019.32 1019.60 1019.83 1020.02 1020.17 1020.29 1020.39 1020.49 1020.61 1020.77 1020.98 1021.25 1021.58 1021.93 1022.29 1022.62 1022.89 1023.08 1023.18 1023.19 1023.14 1023.03 1022.89 1022.75 1022.60 1022.46 1022.32 1022.18 1022.03 1021.86 1021.67 1021.48 1021.30 1021.14 1021.01 1020.91 1020.85 1020.83 1020.82 1020.83 1020.83 1020.81 1020.78
1020.13 1020.40 1020.63 1020.80 1020.94 1021.04 1021.11 1021.18 1021.27 1021.39 1021.57 1021.80 1022.08 1022.40 1022.73 1023.04 1023.29 1023.47 1023.57 1023.59 1023.54 1023.44 1023.30 1023.15 1022.99 1022.83 1022.67 1022.50 1022.31 1022.11 1021.89 1021.66 1021.43 1021.22 1021.04 1020.88 1020.76 1020.67 1020.59 1020.53 1020.46 1020.38 1020.29
1020.91 1021.18 1021.40 1021.57 1021.70 1021.80 1021.87 1021.93 1022.00 1022.09 1022.23 1022.43 1022.66 1022.94 1023.22 1023.48 1023.71 1023.87 1023.95 1023.96 1023.91 1023.81 1023.66 1023.50 1023.33 1023.15 1022.96 1022.75 1022.53 1022.29 1022.03 1021.76 1021.49 1021.23 1020.99 1020.78 1020.59 1020.44 1020.30 1020.17 1020.04 1019.90 1019.75
1021.65 1021.90 1022.12 1022.30 1022.43 1022.54 1022.62 1022.68 1022.74 1022.82 1022.92 1023.07 1023.25 1023.46 1023.68 1023.89 1024.06 1024.19 1024.25 1024.25 1024.19 1024.08 1023.94 1023.77 1023.58 1023.38 1023.16 1022.92 1022.66 1022.38 1022.07 1021.76 1021.44 1021.13 1020.84 1020.57 1020.33 1020.12 1019.92 1019.74 1019.56 1019.38 1019.19
1022.35 1022.59 1022.80 1022.98 1023.13 1023.25 1023.33 1023.40 1023.45 1023.50 1023.56 1023.65 1023.77 1023.90 1024.05 1024.19 1024.30 1024.38 1024.42 1024.40 1024.34 1024.23 1024.09 1023.92 1023.72 1023.50 1023.25 1022.98 1022.67 1022.35 1022.00 1021.64 1021.27 1020.91 1020.58 1020.26 1019.97 1019.71 1019.47 1019.25 1019.03 1018.82 1018.61
1023.03 1023.24 1023.44 1023.62 1023.78 1023.90 1023.99 1024.05 1024.08 1024.10 1024.11 1024.13 1024.17 1024.22 1024.28 1024.35 1024.40 1024.43 1024.43 1024.40 1024.34 1024.23 1024.09 1023.92 1023.72 1023.48 1023.21 1022.91 1022.57 1022.20 1021.81 1021.40 1020.99 1020.59 1020.21 1019.86 1019.53 1019.23 1018.96 1018.71 1018.47 1018.25 1018.02
1023.70 1023.89 1024.07 1024.24 1024.39 1024.50 1024.58 1024.62 1024.62 1024.59 1024.54 1024.49 1024.45 1024.41 1024.38 1024.36 1024.35 1024.33 1024.30 1024.25 1024.18 1024.08 1023.95 1023.78 1023.58 1023.33 1023.05 1022.72 1022.35 1021.94 1021.52 1021.07 1020.62 1020.18 1019.77 1019.38 1019.02 1018.69 1018.40 1018.13 1017.89 1017.66 1017.43
1024.37 1024.53 1024.69 1024.83 1024.96 1025.05 1025.10 1025.10 1025.06 1024.98 1024.87 1024.74 1024.61 1024.49 1024.38 1024.28 1024.20 1024.13 1024.06 1023.98 1023.90 1023.80 1023.67 1023.51 1023.31 1023.06 1022.76 1022.42 1022.03 1021.60 1021.14 1020.67 1020.19 1019.72 1019.27 1018.85 1018.46 1018.11 1017.80 1017.52 1017.26 1017.03 1016.81
1025.02 1025.14 1025.26 1025.38 1025.47 1025.52 1025.54 1025.50 1025.41 1025.28 1025.11 1024.92 1024.71 1024.51 1024.32 1024.15 1024.00 1023.87 1023.76 1023.66 1023.55 1023.44 1023.31 1023.14 1022.93 1022.68 1022.38 1022.02 1021.62 1021.18 1020.70 1020.21 1019.71 1019.22 1018.75 1018.30 1017.89 1017.51 1017.17 1016.87 1016.61 1016.37 1016.15
1025.61 1025.70 1025.78 1025.85 1025.90 1025.92 1025.89 1025.82 1025.69 1025.51 1025.29 1025.04 1024.78 1024.51 1024.26 1024.02 1023.81 1023.62 1023.46 1023.31 1023.17 1023.03 1022.88 1022.70 1022.48 1022.22 1021.91 1021.55 1021.14 1020.70 1020.22 1019.73 1019.22 1018.72 1018.23 1017.75 1017.31 1016.90 1016.54 1016.21 1015.92 1015.66 1015.43
1026.12 1026.16 1026.21 1026.24 1026.24 1026.22 1026.15 1026.04 1025.88 1025.67 1025.42 1025.14 1024.83 1024.52 1024.22 1023.92 1023.65 1023.40 1023.18 1022.98 1022.79 1022.60 1022.41 1022.20 1021.96 1021.69 1021.38 1021.02 1020.63 1020.19 1019.73 1019.24 1018.74 1018.23 1017.73 1017.23 1016.76 1016.31 1015.90 1015.53 1015.20 1014.91 1014.65
1026.51 1026.52 1026.53 1026.51 1026.48 1026.42 1026.33 1026.19 1026.01 1025.78 1025.51 1025.21 1024.88 1024.54 1024.19 1023.85 1023.52 1023.22 1022.93 1022.66 1022.41 1022.17 1021.93 1021.68 1021.42 1021.14 1020.82 1020.48 1020.10 1019.69 1019.24 1018.78 1018.29 1017.78 1017.27 1016.76 1016.25 1015.76 1015.30 1014.88 1014.49 1014.15 1013.84
1026.79 1026.77 1026.74 1026.69 1026.63 1026.54 1026.41 1026.26 1026.06 1025.82 1025.55 1025.24 1024.90 1024.54 1024.16 1023.78 1023.41 1023.04 1022.69 1022.36 1022.04 1021.74 1021.45 1021.17 1020.88 1020.58 1020.27 1019.94 1019.59 1019.21 1018.80 1018.36 1017.89 1017.40 1016.88 1016.35 1015.81 1015.28 1014.76 1014.27 1013.82 1013.42 1013.05
1026.98 1026.93 1026.87 1026.80 1026.70 1026.58 1026.44 1026.26 1026.06 1025.81 1025.53 1025.22 1024.87 1024.49 1024.10 1023.68 1023.26 1022.84 1022.44 1022.04 1021.67 1021.32 1020.98 1020.67 1020.36 1020.06 1019.76 1019.45 1019.13 1018.78 1018.41 1018.01 1017.57 1017.09 1016.57 1016.03 1015.47 1014.89 1014.32 1013.77 1013.25 1012.77 1012.34
1027.10 1027.03 1026.95 1026.85 1026.73 1026.59 1026.43 1026.23 1026.01 1025.75 1025.46 1025.13 1024.77 1024.38 1023.96 1023.51 1023.06 1022.60 1022.15 1021.71 1021.29 1020.90 1020.54 1020.20 1019.89 1019.60 1019.32 1019.03 1018.74 1018.44 1018.10 1017.73 1017.32 1016.86 1016.35 1015.81 1015.22 1014.62 1014.00 1013.39 1012.81 1012.27 1011.78
1027.18 1027.11 1027.02 1026.90 1026.76 1026.59 1026.40 1026.18 1025.93 1025.65 1025.34 1024.99 1024.60 1024.18 1023.74 1023.27 1022.78 1022.29 1021.81 1021.35 1020.91 1020.50 1020.13 1019.79 1019.49 1019.21 1018.95 1018.70 1018.44 1018.16 1017.86 1017.52 1017.14 1016.70 1016.20 1015.66 1015.07 1014.45 1013.81 1013.17 1012.54 1011.95 1011.41
Thickness
5735 5732 5730 5728 5726 5723 5721 5719 5717 5715 5713 5712 5710 5709 5706 5704 5702 5699 5697 5694 5691 5689 5686 5685 5683 5681 5679 5678 5677 5676 5675 5674 5673 5672 5672 5671 5670 5669 5669 5668 5668 5668 5668
5734 5731 5729 5726 5724 5722 5719 5717 5715 5713 5711 5709 5707 5705 5703 5701 5698 5695 5693 5691 5688 5685 5683 5680 5678 5676 5675 5673 5672 5671 5670 5668 5667 5667 5666 5665 5665 5664 5663 5662 5662 5661 5661
5732 5730 5727 5725 5722 5719 5716 5714 5711 5709 5707 5705 5702 5700 5698 5696 5693 5691 5688 5686 5684 5681 5678 5676 5673 5671 5669 5667 5666 5665 5663 5662 5661 5660 5659 5658 5658 5657 5656 5655 5654 5653 5653
5730 5727 5724 5721 5719 5715 5712 5710 5707 5703 5701 5698 5696 5694 5692 5690 5687 5685 5682 5680 5678 5675 5673 5670 5668 5665 5663 5661 5660 5658 5657 5655 5654 5653 5651 5650 5649 5648 5647 5646 5645 5644 5644
5727 5723 5720 5717 5713 5710 5706 5704 5700 5697 5693 5690 5689 5687 5685 5683 5680 5677 5675 5672 5670 5668 5666 5664 5662 5659 5657 5655 5653 5652 5650 5648 5646 5645 5643 5642 5640 5639 5638 5636 5635 5634 5633
5723 5719 5714 5710 5707 5703 5699 5696 5693 5690 5686 5683 5682 5678 5676 5674 5672 5670 5667 5664 5662 5660 5658 5656 5654 5652 5650 5647 5645 5643 5642 5640 5638 5636 5635 5633 5631 5629 5628 5626 5625 5624 5623
5716 5712 5708 5703 5699 5696 5693 5689 5686 5681 5677 5675 5672 5668 5666 5664 5662 5660 5658 5656 5653 5651 5649 5647 5644 5642 5641 5638 5636 5634 5632 5631 5629 5627 5625 5623 5621 5618 5617 5615 5614 5613 5612
5707 5703 5699 5695 5692 5688 5684 5681 5678 5673 5668 5665 5663 5659 5654 5652 5651 5649 5647 5645 5643 5641 5639 5636 5634 5632 5630 5627 5625 5623 5622 5620 5619 5617 5615 5613 5610 5607 5605 5603 5601 5600 5599
5695 5691 5688 5686 5683 5680 5675 5672 5670 5666 5660 5655 5653 5652 5648 5645 5640 5637 5634 5633 5631 5629 5626 5624 5622 5620 5618 5616 5614 5612 5609 5608 5606 5605 5604 5602 5599 5596 5593 5590 5588 5586 5585
5684 5682 5678 5676 5673 5670 5666 5663 5660 5657 5653 5647 5643 5639 5637 5636 5631 5627 5623 5620 5618 5615 5612 5610 5608 5606 5604 5602 5600 5598 5596 5594 5592 5591 5589 5587 5585 5582 5579 5576 5574 5572 5570
5673 5670 5667 5665 5662 5658 5655 5652 5648 5645 5641 5637 5632 5628 5624 5621 5618 5617 5611 5607 5604 5601 5598 5596 5593 5591 5589 5587 5585 5583 5581 5579 5577 5575 5573 5570 5568 5566 5563 5560 5558 5556 5555
5658 5656 5653 5651 5649 5645 5642 5638 5634 5631 5627 5623 5619 5616 5612 5610 5606 5602 5598 5593 5589 5585 5583 5580 5578 5575 5573 5570 5568 5566 5564 5561 5559 5557 5555 5552 5550 5547 5545 5543 5541 5540 5538
5644 5640 5639 5637 5634 5630 5627 5623 5619 5615 5611 5608 5604 5600 5597 5594 5591 5587 5583 5577 5573 5570 5566 5564 5561 5558 5555 5553 5550 5548 5546 5544 5541 5539 5537 5534 5532 5530 5527 5525 5523 5522 5521
5629 5626 5624 5621 5618 5615 5612 5608 5604 5600 5596 5592 5589 5585 5581 5577 5574 5571 5567 5562 5559 5555 5551 5548 5544 5541 5538 5535 5533 5531 5529 5526 5524 5521 5519 5516 5514 5512 5510 5508 5506 5505 5503
5614 5611 5608 5605 5601 5598 5595 5592 5587 5583 5580 5576 5572 5569 5565 5560 5556 5553 5549 5546 5542 5540 5537 5531 5527 5524 5521 5518 5516 5514 5512 5509 5507 5505 5502 5500 5497 5495 5493 5492 5490 5489 5487
5596 5593 5591 5588 5583 5580 5577 5574 5570 5566 5562 5558 5555 5551 5547 5543 5539 5535 5531 5527 5523 5521 5519 5515 5510 5507 5504 5502 5500 5498 5495 5493 5491 5489 5487 5484 5482 5480 5478 5477 5476 5475 5473
5579 5575 5572 5569 5565 5561 5558 5555 5551 5548 5544 5540 5536 5532 5529 5525 5521 5517 5513 5509 5505 5502 5501 5499 5494 5492 5489 5487 5485 5483 5481 5479 5477 5474 5472 5470 5468 5467 5465 5464 5463 5462 5461
5562 5557 5554 5551 5547 5543 5539 5536 5532 5528 5525 5521 5516 5514 5511 5508 5504 5500 5497 5493 5490 5486 5484 5484 5481 5477 5475 5473 5471 5469 5467 5465 5463 5462 5460 5459 5457 5456 5454 5453 5452 5451 5449
5544 5540 5536 5532 5528 5524 5520 5516 5512 5509 5505 5502 5498 5495 5493 5490 5487 5485 5482 5479 5476 5473 5469 5467 5466 5464 5463 5461 5459 5458 5456 5453 5452 5451 5450 5449 5447 5446 5444 5443 5443 5441 5440
5526 5522 5518 5514 5510 5506 5502 5498 5494 5490 5487 5484 5482 5479 5477 5475 5472 5470 5468 5465 5462 5459 5457 5455 5454 5454 5452 5451 5448 5447 5447 5445 5443 5441 5441 5439 5439 5437 5437 5437 5436 5435 5433
5508 5504 5500 5496 5492 5489 5485 5481 5476 5473 5470 5467 5465 5463 5461 5461 5459 5457 5456 5453 5451 5449 5447 5445 5445 5444 5444 5442 5440 5438 5437 5437 5437 5435 5434 5432 5431 5432 5432 5431 5430 5429 5428
5491 5487 5483 5479 5475 5471 5468 5465 5461 5456 5453 5451 5449 5448 5447 5447 5445 5444 5443 5442 5441 5440 5439 5437 5437 5437 5437 5435 5433 5431 5430 5431 5433 5431 5427 5428 5427 5428 5428 5427 5427 5425 5423
5475 5471 5467 5463 5459 5455 5451 5448 5445 5441 5438 5436 5435 5434 5434 5435 5434 5433 5433 5433 5433 5433 5433 5431 5431 5432 5432 5432 5429 5428 5427 5425 5425 5426 5424 5426 5425 5425 5425 5424 5423 5421 5419
5461 5456 5452 5448 5443 5440 5436 5433 5430 5427 5425 5424 5423 5422 5423 5424 5425 5424 5424 5426 5427 5429 5429 5428 5428 5429 5428 5428 5425 5424 5423 5423 5423 5423 5421 5421 5423 5421 5421 5420 5420 5418 5416
5448 5443 5438 5434 5429 5425 5422 5420 5417 5414 5414 5413 5414 5414 5415 5416 5418 5417 5418 5420 5422 5426 5427 5427 5427 5427 5427 5426 5424 5423 5422 5420 5421 5422 5419 5416 5418 5417 5417 5416 5415 5413 5411
5435 5430 5426 5421 5416 5412 5409 5406 5405 5403 5403 5404 5406 5408 5410 5411 5413 5414 5414 5416 5419 5423 5424 5426 5426 5427 5426 5425 5423 5421 5419 5417 5417 5418 5417 5413 5412 5410 5412 5411 5409 5408 5406